Waterville, ME

6:24 PM EDT on March 22, 2017 (GMT -0400)
Waterville Lafleur

Weather History for KWVL - January, 2012

Change the Weather History Date:

Sunday, January 8, 2012

  Actual Average Record
Temperature  
Mean Temperature 30 °F -  
Max Temperature 35 °F 29 °F 59 °F (2008)
Min Temperature 24 °F 9 °F -14 °F (1968)
Degree Days  
Heating Degree Days 36    
Moisture  
Dew Point 19 °F    
Average Humidity 65    
Maximum Humidity 100    
Minimum Humidity 44    
Precipitation  
Precipitation 0.00 in - - ()
Sea Level Pressure  
Sea Level Pressure 30.01 in    
Wind  
Wind Speed 8 mph (WNW)    
Max Wind Speed 16 mph    
Max Gust Speed 24 mph    
Visibility 10 miles    
Events      
Averages and records for this station are not official NWS values.
T = Trace of Precipitation, MM = Missing Value Source: NWS Daily Summary

Daily Weather History Graph

Daily Weather History Graph

Search for Another Location

Airport or City:

Trip Planner

Search our weather history database for the weather conditions in past years. The results will help you decide how hot, cold, wet, or windy it might be!

Date:

Astronomy

Jan. 08, 2012 Rise Set
Actual Time 7:14 AM EST 4:16 PM EST
Civil Twilight 6:41 AM EST 4:48 PM EST
Nautical Twilight 6:05 AM EST 5:25 PM EST
Astronomical Twilight 5:30 AM EST 6:00 PM EST
Moon 3:56 PM EST (1/8) 6:30 AM EST (1/8)
Length of Visible Light 10h 07m
Length of Day
9h 01m
Full, 100% of the Moon is Illuminated
Jan 8
Full
Jan 9
Full
Jan 16
Last Quarter
Jan 23
New
Jan 30
First Quarter

Hourly Weather History & Observations

Time (EST) Temp. Windchill Dew Point Humidity Pressure Visibility Wind Dir Wind Speed Gust Speed Precip Events Conditions
12:35 AM 26.6 °F 21.2 °F 26.6 °F 100% 29.76 in 10.0 mi WSW 4.6 mph - N/A   Partly Cloudy
12:55 AM 28.4 °F 22.2 °F 26.6 °F 93% 29.77 in 8.0 mi WSW 5.8 mph - N/A   Clear
1:15 AM 28.4 °F 23.3 °F 28.4 °F 100% 29.77 in 10.0 mi WSW 4.6 mph - N/A   Clear
1:35 AM 26.6 °F - 24.8 °F 93% 29.77 in 6.0 mi Calm Calm - N/A   Clear
1:55 AM 26.6 °F 21.2 °F 24.8 °F 93% 29.79 in 5.0 mi WSW 4.6 mph - N/A   Clear
2:15 AM 30.2 °F 24.3 °F 28.4 °F 93% 29.79 in 10.0 mi West 5.8 mph - N/A   Clear
3:15 AM 33.8 °F 27.7 °F 30.2 °F 87% 29.81 in 10.0 mi West 6.9 mph - N/A   Partly Cloudy
3:35 AM 28.4 °F 24.6 °F 26.6 °F 93% 29.82 in 10.0 mi SW 3.5 mph - N/A   Clear
3:55 AM 26.6 °F 21.2 °F 24.8 °F 93% 29.82 in 7.0 mi SSW 4.6 mph - N/A   Clear
4:15 AM 26.6 °F 21.2 °F 26.6 °F 100% 29.83 in 10.0 mi West 4.6 mph - N/A   Clear
4:35 AM 30.2 °F 24.3 °F 28.4 °F 93% 29.84 in 10.0 mi WNW 5.8 mph - N/A   Partly Cloudy
5:55 AM 32.0 °F 24.8 °F 24.8 °F 75% 29.90 in 10.0 mi NW 8.1 mph - N/A   Clear
6:15 AM 32.0 °F 25.6 °F 24.8 °F 75% 29.91 in 10.0 mi NW 6.9 mph - N/A   Clear
6:35 AM 33.8 °F 26.4 °F 24.8 °F 70% 29.91 in 10.0 mi West 9.2 mph - N/A   Clear
6:55 AM 33.8 °F 26.4 °F 24.8 °F 70% 29.92 in 10.0 mi WNW 9.2 mph - N/A   Clear
7:15 AM 32.0 °F 24.8 °F 24.8 °F 75% 29.93 in 10.0 mi WNW 8.1 mph - N/A   Clear
7:35 AM 32.0 °F 25.6 °F 24.8 °F 75% 29.94 in 10.0 mi WNW 6.9 mph - N/A   Clear
8:35 AM 33.8 °F 24.8 °F 21.2 °F 60% 29.98 in 10.0 mi WNW 12.7 mph - N/A   Clear
8:55 AM 33.8 °F 24.3 °F 21.2 °F 60% 29.99 in 10.0 mi WNW 13.8 mph 19.6 mph N/A   Clear
9:15 AM 33.8 °F 23.5 °F 21.2 °F 60% 30.00 in 10.0 mi WNW 16.1 mph 24.2 mph N/A   Clear
9:35 AM 33.8 °F 23.9 °F 19.4 °F 56% 30.00 in 10.0 mi WNW 15.0 mph 20.7 mph N/A   Clear
9:55 AM 35.6 °F 28.6 °F 19.4 °F 52% 30.02 in 10.0 mi NW 9.2 mph 19.6 mph N/A   Clear
10:15 AM 35.6 °F 26.2 °F 19.4 °F 52% 30.02 in 10.0 mi WNW 15.0 mph 23.0 mph N/A   Clear
11:15 AM 35.6 °F 28.6 °F 19.4 °F 52% 30.00 in 10.0 mi NW 9.2 mph - N/A   Clear
11:35 AM 35.6 °F 29.2 °F 19.4 °F 52% 30.00 in 10.0 mi WNW 8.1 mph 18.4 mph N/A   Clear
11:55 AM 35.6 °F 27.1 °F 19.4 °F 52% 30.00 in 10.0 mi NW 12.7 mph 19.6 mph N/A   Clear
12:15 PM 35.6 °F 27.5 °F 19.4 °F 52% 30.01 in 10.0 mi WNW 11.5 mph 18.4 mph N/A   Clear
12:35 PM 35.6 °F 28.0 °F 19.4 °F 52% 30.01 in 10.0 mi WNW 10.4 mph 16.1 mph N/A   Clear
1:35 PM 35.6 °F 28.0 °F 17.6 °F 48% 30.02 in 10.0 mi NW 10.4 mph 16.1 mph N/A   Partly Cloudy
1:55 PM 35.6 °F 28.0 °F 17.6 °F 48% 30.02 in 10.0 mi West 10.4 mph - N/A   Scattered Clouds
2:15 PM 35.6 °F 29.2 °F 15.8 °F 44% 30.03 in 10.0 mi NW 8.1 mph - N/A   Scattered Clouds
2:35 PM 33.8 °F 26.4 °F 15.8 °F 48% 30.03 in 10.0 mi NNW 9.2 mph 16.1 mph N/A   Partly Cloudy
2:55 PM 33.8 °F 25.8 °F 17.6 °F 52% 30.04 in 10.0 mi NW 10.4 mph - N/A   Clear
3:15 PM 32.0 °F 24.2 °F 15.8 °F 51% 30.05 in 10.0 mi WNW 9.2 mph - N/A   Clear
4:35 PM 30.2 °F 23.4 °F 15.8 °F 55% 30.09 in 10.0 mi WNW 6.9 mph - N/A   Mostly Cloudy
4:55 PM 30.2 °F 21.9 °F 15.8 °F 55% 30.09 in 10.0 mi NW 9.2 mph - N/A   Overcast
5:15 PM 30.2 °F 21.3 °F 15.8 °F 55% 30.11 in 10.0 mi NW 10.4 mph 17.3 mph N/A   Overcast
5:35 PM 28.4 °F 19.1 °F 15.8 °F 59% 30.12 in 10.0 mi WNW 10.4 mph 18.4 mph N/A   Overcast
5:55 PM 28.4 °F 18.0 °F 14.0 °F 55% 30.13 in 10.0 mi NW 12.7 mph 16.1 mph N/A   Overcast
6:15 PM 28.4 °F 18.5 °F 14.0 °F 55% 30.13 in 10.0 mi NW 11.5 mph 18.4 mph N/A   Overcast
6:35 PM 28.4 °F 19.7 °F 14.0 °F 55% 30.14 in 10.0 mi NW 9.2 mph 18.4 mph N/A   Overcast
6:55 PM 28.4 °F 18.0 °F 14.0 °F 55% 30.15 in 10.0 mi NW 12.7 mph 16.1 mph N/A   Overcast
7:15 PM 26.6 °F 16.8 °F 12.2 °F 55% 30.15 in 10.0 mi NW 10.4 mph - N/A   Overcast
7:35 PM 26.6 °F 16.8 °F 12.2 °F 55% 30.16 in 10.0 mi WNW 10.4 mph - N/A   Mostly Cloudy
7:55 PM 26.6 °F 18.2 °F 12.2 °F 55% 30.16 in 10.0 mi WNW 8.1 mph - N/A   Overcast
8:35 PM 26.6 °F 16.8 °F 12.2 °F 55% 30.16 in 10.0 mi NW 10.4 mph - N/A   Overcast
8:55 PM 26.6 °F 19.1 °F 12.2 °F 55% 30.16 in 10.0 mi WNW 6.9 mph - N/A   Overcast
9:15 PM 24.8 °F 16.1 °F 12.2 °F 59% 30.16 in 10.0 mi WNW 8.1 mph - N/A   Overcast
9:35 PM 24.8 °F 14.6 °F 14.0 °F 64% 30.17 in 10.0 mi NW 10.4 mph - N/A   Overcast
9:55 PM 24.8 °F 14.6 °F 14.0 °F 64% 30.17 in 10.0 mi NW 10.4 mph - N/A   Overcast
10:35 PM 24.8 °F 19.1 °F 12.2 °F 59% 30.18 in 10.0 mi North 4.6 mph - N/A   Overcast
10:55 PM 24.8 °F 19.1 °F 12.2 °F 59% 30.17 in 10.0 mi North 4.6 mph - N/A   Overcast
11:15 PM 24.8 °F 19.1 °F 12.2 °F 59% 30.18 in 10.0 mi NNW 4.6 mph - N/A   Overcast